Lapeer, MI

7:56 PM EST on December 16, 2017 (GMT -0500)
Lapeer

Weather History for KD95 - March, 2013

Change the Weather History Date:

Monday, March 4, 2013

  Actual Average (KFNT) Record (KFNT)
Temperature  
Mean Temperature 18 °F -  
Max Temperature 30 °F 40 °F 63 °F (1983)
Min Temperature 5 °F 23 °F -2 °F (1978)
Degree Days  
Heating Degree Days 48    
Moisture  
Dew Point 11 °F    
Average Humidity 75    
Maximum Humidity 93    
Minimum Humidity 43    
Precipitation  
Precipitation 0.00 in - - ()
Sea Level Pressure  
Sea Level Pressure 30.09 in    
Wind  
Wind Speed 1 mph (WNW)    
Max Wind Speed 9 mph    
Max Gust Speed -    
Visibility 10 miles    
Events      
Averages and records for this station are not official NWS values.
T = Trace of Precipitation, MM = Missing Value Source: NWS Daily Summary

Daily Weather History Graph

Daily Weather History Graph

Search for Another Location

Airport or City:

Trip Planner

Search our weather history database for the weather conditions in past years. The results will help you decide how hot, cold, wet, or windy it might be!

Date:

Astronomy

Mar. 04, 2013 Rise Set
Actual Time 7:03 AM EST 6:26 PM EST
Civil Twilight 6:35 AM EST 6:54 PM EST
Nautical Twilight 6:02 AM EST 7:27 PM EST
Astronomical Twilight 5:29 AM EST 8:00 PM EST
Moon 1:18 AM EST (3/4) 11:00 AM EST (3/4)
Length of Visible Light 12h 19m
Length of Day
11h 22m
Waning Gibbous, 52% of the Moon is Illuminated
Mar 4
Waning Gibbous
Mar 4
Last Quarter
Mar 11
New
Mar 19
First Quarter
Mar 27
Full

Hourly Weather History & Observations

Time (EST) Temp. Windchill Dew Point Humidity Pressure Visibility Wind Dir Wind Speed Gust Speed Precip Events Conditions
12:12 AM 11.5 °F - 9.9 °F 93% 30.03 in 10.0 mi Calm Calm - N/A   Clear
12:33 AM 10.2 °F - 8.6 °F 93% 30.03 in 10.0 mi Calm Calm - N/A   Clear
12:52 AM 9.3 °F - 7.7 °F 93% 30.04 in 10.0 mi Calm Calm - N/A   Clear
1:13 AM 9.7 °F - 7.9 °F 92% 30.04 in 10.0 mi Calm Calm - N/A   Clear
1:33 AM 10.2 °F - 8.1 °F 91% 30.06 in 10.0 mi Calm Calm - N/A   Clear
1:52 AM 9.3 °F - 7.2 °F 91% 30.06 in 10.0 mi Calm Calm - N/A   Clear
2:13 AM 8.1 °F - 5.7 °F 90% 30.06 in 10.0 mi Calm Calm - N/A   Clear
2:33 AM 8.1 °F - 6.3 °F 92% 30.06 in 10.0 mi Calm Calm - N/A   Clear
2:52 AM 7.9 °F - 5.9 °F 92% 30.06 in 10.0 mi Calm Calm - N/A   Clear
3:13 AM 7.9 °F - 5.4 °F 89% 30.05 in 10.0 mi Calm Calm - N/A   Clear
3:33 AM 7.5 °F - 5.2 °F 90% 30.05 in 10.0 mi Calm Calm - N/A   Clear
3:52 AM 7.7 °F - 5.7 °F 92% 30.05 in 10.0 mi Calm Calm - N/A   Clear
4:13 AM 6.8 °F - 4.5 °F 90% 30.06 in 10.0 mi Calm Calm - N/A   Clear
4:33 AM 7.7 °F - 5.4 °F 90% 30.06 in 10.0 mi Calm Calm - N/A   Clear
4:52 AM 6.8 °F - 4.5 °F 90% 30.07 in 10.0 mi Calm Calm - N/A   Clear
5:13 AM 6.3 °F - 3.7 °F 89% 30.07 in 10.0 mi Calm Calm - N/A   Clear
5:32 AM 6.4 °F - 4.3 °F 91% 30.08 in 10.0 mi Calm Calm - N/A   Scattered Clouds
5:52 AM 5.9 °F - 3.2 °F 89% 30.09 in 10.0 mi Calm Calm - N/A   Scattered Clouds
6:13 AM 5.5 °F - 2.8 °F 89% 30.10 in 10.0 mi Calm Calm - N/A   Clear
6:32 AM 5.0 °F - 2.1 °F 88% 30.10 in 10.0 mi Calm Calm - N/A   Clear
6:52 AM 5.9 °F - 3.6 °F 90% 30.10 in 10.0 mi Calm Calm - N/A   Clear
7:13 AM 6.4 °F - 3.7 °F 89% 30.10 in 10.0 mi Calm Calm - N/A   Clear
7:32 AM 5.7 °F - 3.0 °F 89% 30.10 in 10.0 mi Calm Calm - N/A   Clear
7:53 AM 7.5 °F - 5.4 °F 91% 30.11 in 10.0 mi Calm Calm - N/A   Clear
8:12 AM 13.1 °F 7.1 °F 10.8 °F 90% 30.11 in 10.0 mi West 3.5 mph - N/A   Clear
8:32 AM 14.7 °F 9.0 °F 12.2 °F 90% 30.11 in 10.0 mi WNW 3.5 mph - N/A   Clear
8:53 AM 16.2 °F 10.6 °F 13.3 °F 88% 30.11 in 10.0 mi West 3.5 mph - N/A   Clear
9:12 AM 17.4 °F 12.1 °F 13.6 °F 85% 30.11 in 10.0 mi West 3.5 mph - N/A   Clear
9:32 AM 18.3 °F 9.1 °F 14.0 °F 83% 30.12 in 10.0 mi West 6.9 mph - N/A   Clear
9:53 AM 19.0 °F 11.1 °F 14.0 °F 81% 30.12 in 10.0 mi WNW 5.8 mph - N/A   Clear
10:12 AM 20.3 °F 12.5 °F 14.2 °F 77% 30.12 in 10.0 mi WNW 5.8 mph - N/A   Clear
10:32 AM 21.6 °F 13.0 °F 14.4 °F 74% 30.12 in 10.0 mi West 6.9 mph - N/A   Clear
10:53 AM 23.0 °F 14.7 °F 14.4 °F 70% 30.11 in 10.0 mi West 6.9 mph - N/A   Clear
11:12 AM 23.9 °F 18.0 °F 14.5 °F 67% 30.11 in 10.0 mi WNW 4.6 mph - N/A   Clear
11:32 AM 24.4 °F 17.5 °F 13.6 °F 64% 30.10 in 10.0 mi WNW 5.8 mph - N/A   Clear
11:53 AM 25.9 °F 19.2 °F 13.3 °F 59% 30.10 in 10.0 mi West 5.8 mph - N/A   Clear
12:12 PM 25.7 °F 21.5 °F 12.9 °F 58% 30.11 in 10.0 mi WNW 3.5 mph - N/A   Clear
12:32 PM 26.6 °F 20.0 °F 12.7 °F 56% 30.11 in 10.0 mi WNW 5.8 mph - N/A   Clear
12:52 PM 27.3 °F 22.0 °F 13.8 °F 57% 30.10 in 10.0 mi WNW 4.6 mph - N/A   Clear
1:12 PM 27.9 °F 19.1 °F 14.0 °F 56% 30.10 in 10.0 mi WNW 9.2 mph - N/A   Clear
1:52 PM 28.9 °F 22.8 °F 13.6 °F 53% 30.08 in 10.0 mi WNW 5.8 mph - N/A   Clear
2:12 PM 29.8 °F - 13.6 °F 51% 30.08 in 10.0 mi Calm Calm - N/A   Clear
2:33 PM 29.7 °F 24.7 °F 12.9 °F 50% 30.08 in 10.0 mi WSW 4.6 mph - N/A   Clear
2:52 PM 30.0 °F 24.1 °F 14.0 °F 51% 30.08 in 10.0 mi WSW 5.8 mph - N/A   Clear
3:12 PM 29.7 °F - 13.8 °F 52% 30.07 in 10.0 mi Calm Calm - N/A   Clear
3:33 PM 30.0 °F 26.5 °F 13.5 °F 50% 30.07 in 10.0 mi West 3.5 mph - N/A   Clear
3:52 PM 30.0 °F 25.2 °F 12.0 °F 47% 30.07 in 10.0 mi North 4.6 mph - N/A   Clear
4:12 PM 30.2 °F 25.4 °F 11.7 °F 46% 30.07 in 10.0 mi NNW 4.6 mph - N/A   Clear
4:32 PM 30.2 °F 25.4 °F 11.1 °F 45% 30.07 in 10.0 mi NNW 4.6 mph - N/A   Clear
4:52 PM 29.7 °F - 9.5 °F 43% 30.07 in 10.0 mi Calm Calm - N/A   Clear
5:13 PM 29.3 °F 25.6 °F 11.3 °F 47% 30.07 in 10.0 mi NNW 3.5 mph - N/A   Clear
5:32 PM 30.0 °F - 10.6 °F 44% 30.08 in 10.0 mi Calm Calm - N/A   Clear
5:52 PM 28.9 °F 23.9 °F 12.4 °F 50% 30.08 in 10.0 mi NW 4.6 mph - N/A   Clear
6:13 PM 28.2 °F 24.4 °F 12.6 °F 52% 30.08 in 10.0 mi NNW 3.5 mph - N/A   Clear
6:32 PM 27.0 °F - 13.1 °F 56% 30.08 in 10.0 mi Calm Calm - N/A   Clear
6:53 PM 25.9 °F - 12.9 °F 58% 30.09 in 10.0 mi Calm Calm - N/A   Clear
7:13 PM 24.6 °F - 13.5 °F 63% 30.09 in 10.0 mi Calm Calm - N/A   Clear
7:32 PM 22.6 °F 18.0 °F 14.4 °F 71% 30.08 in 10.0 mi NE 3.5 mph - N/A   Clear
7:53 PM 23.9 °F 19.5 °F 13.5 °F 64% 30.09 in 10.0 mi NE 3.5 mph - N/A   Clear
8:13 PM 22.6 °F - 14.0 °F 69% 30.09 in 10.0 mi Calm Calm - N/A   Clear
8:32 PM 22.5 °F 17.8 °F 13.8 °F 69% 30.09 in 10.0 mi ENE 3.5 mph - N/A   Clear
8:53 PM 22.1 °F - 14.0 °F 71% 30.09 in 10.0 mi Calm Calm - N/A   Clear
9:32 PM 20.1 °F - 14.4 °F 78% 30.10 in 10.0 mi Calm Calm - N/A   Clear
9:53 PM 19.2 °F - 14.4 °F 81% 30.10 in 10.0 mi Calm Calm - N/A   Clear
10:12 PM 18.9 °F - 14.0 °F 81% 30.10 in 10.0 mi Calm Calm - N/A   Clear
10:32 PM 19.0 °F - 14.0 °F 81% 30.10 in 10.0 mi Calm Calm - N/A   Clear
10:53 PM 15.8 °F - 13.3 °F 90% 30.11 in 10.0 mi Calm Calm - N/A   Clear
11:12 PM 15.1 °F - 12.9 °F 91% 30.11 in 10.0 mi Calm Calm - N/A   Clear
11:32 PM 15.8 °F - 13.6 °F 91% 30.11 in 10.0 mi Calm Calm - N/A   Clear
11:53 PM 14.9 °F - 13.1 °F 93% 30.12 in 10.0 mi Calm Calm - N/A   Clear